{"data":{"norad_id":65348,"intl_designator":"2025-189AB","name":"STARLINK-34859","alt_names":[],"object_type":"PAYLOAD","status":"ACTIVE","operator":null,"country":"US","launch_date":"2025-08-27","launch_site_code":"AFETR","launch_vehicle":null,"mission":null,"orbit_class":"UNKNOWN","rcs_meters":null,"size_class":null,"mass_kg":null,"dimensions":null,"purposes":["comms"],"wikipedia_slug":null,"has_3d_model":false,"image_url":null,"decayed_at":null,"tle_current":{"epoch":"2026-05-24T21:45:37.165824Z","epoch_age_seconds":93277,"freshness":"FRESH","line1":"1 65348U 25189AB  26144.90668016  .00010352  00000+0  36111-3 0  9999","line2":"2 65348  53.1605 212.8825 0001344  86.6278 273.4877 15.30203352 42777","mean_motion":15.30203352,"eccentricity":0.0001344,"inclination_deg":53.1605,"raan_deg":212.8825,"arg_perigee_deg":86.6278,"mean_anomaly_deg":273.4877,"bstar":0.00036111,"rev_number":4277,"period_min":94.105139563176,"perigee_km":474.2839717968,"apogee_km":476.12615014279,"semimajor_km":6853.3420609698,"source":"CELESTRAK","updated_at":"2026-05-25T13:38:20.763709Z"}}}